,,,PA_Meas_PMT16A,,PR_Meas_QMR101_102,,RH_Meas_QMH101,,SR_Meas_QMS101,,TA_Meas_QMH101,,GenWind,,GenWind,
date,time,status,PA,status,PR,status,RH,status,SR,status,TA,status,DirAvg,status,SpdAvg,
2009-07-19, 00:00:05,VALID,1005.92,VALID,0,VALID,94.5447,VALID,0,VALID,24.4414,VALID,12,VALID,0,
2009-07-19, 00:01:05,VALID,1005.92,VALID,0,VALID,94.5371,VALID,0,VALID,24.4201,VALID,12,VALID,0,
2009-07-19, 00:02:05,VALID,1005.91,VALID,0,VALID,94.5523,VALID,0,VALID,24.4414,VALID,12,VALID,0,
2009-07-19, 00:03:05,VALID,1005.9,VALID,0,VALID,94.5752,VALID,0,VALID,24.4609,VALID,12,VALID,0,
2009-07-19, 00:04:05,VALID,1005.9,VALID,0,VALID,94.5752,VALID,0.100563,VALID,24.4822,VALID,12,VALID,0,
2009-07-19, 00:05:05,VALID,1005.94,VALID,0,VALID,94.5981,VALID,0.100563,VALID,24.4804,VALID,12,VALID,0,
2009-07-19, 00:06:05,VALID,1005.92,VALID,0,VALID,94.6134,VALID,0,VALID,24.4804,VALID,12,VALID,0,
2009-07-19, 00:07:05,VALID,1005.91,VALID,0,VALID,94.6134,VALID,0,VALID,24.4804,VALID,12,VALID,0,
2009-07-19, 00:08:05,VALID,1005.89,VALID,0,VALID,94.6057,VALID,0,VALID,24.5017,VALID,12,VALID,0,
2009-07-19, 00:09:05,VALID,1005.92,VALID,0,VALID,94.621,VALID,0,VALID,24.4998,VALID,12,VALID,0,
2009-07-19, 00:10:05,VALID,1005.9,VALID,0,VALID,94.6439,VALID,0,VALID,24.4998,VALID,12,VALID,0,
2009-07-19, 00:11:05,VALID,1005.9,VALID,0,VALID,94.6439,VALID,0,VALID,24.4998,VALID,12,VALID,0,
2009-07-19, 00:12:05,VALID,1005.84,VALID,0,VALID,94.6515,VALID,0,VALID,24.5193,VALID,12,VALID,0,
2009-07-19, 00:13:05,VALID,1005.88,VALID,0,VALID,94.6439,VALID,0,VALID,24.4998,VALID,12,VALID,0,
2009-07-19, 00:14:05,VALID,1005.89,VALID,0,VALID,94.6591,VALID,0,VALID,24.4998,VALID,12,VALID,0,
2009-07-19, 00:15:05,VALID,1005.88,VALID,0,VALID,94.6363,VALID,0,VALID,24.4804,VALID,12,VALID,0,
2009-07-19, 00:16:05,VALID,1005.86,VALID,0,VALID,94.6363,VALID,0.100563,VALID,24.4804,VALID,12,VALID,0,
2009-07-19, 00:17:05,VALID,1005.86,VALID,0,VALID,94.6057,VALID,0,VALID,24.4804,VALID,12,VALID,0,
2009-07-19, 00:18:05,VALID,1005.87,VALID,0,VALID,94.6057,VALID,0,VALID,24.4609,VALID,12,VALID,0,
2009-07-19, 00:19:05,VALID,1005.83,VALID,0,VALID,94.5905,VALID,0,VALID,24.4609,VALID,12,VALID,0,
2009-07-19, 00:20:05,VALID,1005.85,VALID,0,VALID,94.5829,VALID,0,VALID,24.4396,VALID,12,VALID,0.294531,
2009-07-19, 00:21:05,VALID,1005.88,VALID,0,VALID,94.5905,VALID,0,VALID,24.4609,VALID,16,VALID,0.452734,
2009-07-19, 00:22:05,VALID,1005.87,VALID,0,VALID,94.5829,VALID,0,VALID,24.4804,VALID,32,VALID,0.424219,
2009-07-19, 00:23:05,VALID,1005.87,VALID,0,VALID,94.5829,VALID,0,VALID,24.4804,VALID,62,VALID,0.182422,
2009-07-19, 00:24:05,VALID,1005.86,VALID,0,VALID,94.5752,VALID,0,VALID,24.4998,VALID,62,VALID,0.219922,
2009-07-19, 00:25:05,VALID,1005.87,VALID,0,VALID,94.5981,VALID,0,VALID,24.5193,VALID,66,VALID,0.477344,
2009-07-19, 00:26:05,VALID,1005.84,VALID,0,VALID,94.5752,VALID,0.100563,VALID,24.5388,VALID,66,VALID,0.477734,
2009-07-19, 00:27:05,VALID,1005.84,VALID,0,VALID,94.5295,VALID,0.100563,VALID,24.5406,VALID,66,VALID,0.189063,
2009-07-19, 00:28:05,VALID,1005.86,VALID,0,VALID,94.5447,VALID,0,VALID,24.5388,VALID,66,VALID,0.221484,
2009-07-19, 00:29:05,VALID,1005.84,VALID,0,VALID,94.5142,VALID,0,VALID,24.5174,VALID,66,VALID,0.255859,
2009-07-19, 00:30:05,VALID,1005.84,VALID,0,VALID,94.5066,VALID,0,VALID,24.5601,VALID,66,VALID,0.280859,
2009-07-19, 00:31:05,VALID,1005.82,VALID,0,VALID,94.4837,VALID,0,VALID,24.5582,VALID,66,VALID,0.319141,
2009-07-19, 00:32:05,VALID,1005.84,VALID,0,VALID,94.4608,VALID,0,VALID,24.5582,VALID,66,VALID,0.2,
2009-07-19, 00:33:05,VALID,1005.81,VALID,0,VALID,94.4303,VALID,0,VALID,24.5582,VALID,66,VALID,0.111328,
2009-07-19, 00:34:05,VALID,1005.79,VALID,0,VALID,94.4074,VALID,0,VALID,24.5582,VALID,66,VALID,0.132813,
2009-07-19, 00:35:05,VALID,1005.79,VALID,0,VALID,94.3998,VALID,0,VALID,24.5388,VALID,66,VALID,0,
2009-07-19, 00:36:05,VALID,1005.8,VALID,0,VALID,94.3692,VALID,0,VALID,24.5601,VALID,66,VALID,0,
2009-07-19, 00:37:05,VALID,1005.77,VALID,0,VALID,94.3464,VALID,0,VALID,24.5601,VALID,66,VALID,0,
2009-07-19, 00:38:05,VALID,1005.77,VALID,0,VALID,94.3387,VALID,0,VALID,24.5193,VALID,66,VALID,0.0734375,
2009-07-19, 00:39:05,VALID,1005.75,VALID,0,VALID,94.3235,VALID,0,VALID,24.5193,VALID,66,VALID,0,
2009-07-19, 00:40:05,VALID,1005.77,VALID,0,VALID,94.3158,VALID,0,VALID,24.5212,VALID,66,VALID,0.0433594,
2009-07-19, 00:41:05,VALID,1005.76,VALID,0,VALID,94.293,VALID,0,VALID,24.4998,VALID,66,VALID,0,
2009-07-19, 00:42:05,VALID,1005.74,VALID,0,VALID,94.2853,VALID,0,VALID,24.5212,VALID,66,VALID,0.183594,
2009-07-19, 00:43:05,VALID,1005.74,VALID,0,VALID,94.2701,VALID,0,VALID,24.4804,VALID,64,VALID,0.161719,
2009-07-19, 00:44:05,VALID,1005.71,VALID,0,VALID,94.2701,VALID,0,VALID,24.5017,VALID,61,VALID,0.25625,
2009-07-19, 00:45:05,VALID,1005.7,VALID,0,VALID,94.2853,VALID,0,VALID,24.5212,VALID,61,VALID,0.257422,
2009-07-19, 00:46:05,VALID,1005.69,VALID,0,VALID,94.3158,VALID,0,VALID,24.5193,VALID,61,VALID,0,
2009-07-19, 00:47:04,VALID,1005.67,VALID,0,VALID,94.3158,VALID,0,VALID,24.5212,VALID,61,VALID,0,
2009-07-19, 00:48:04,VALID,1005.66,VALID,0,VALID,94.3082,VALID,0.100563,VALID,24.4998,VALID,61,VALID,0,
2009-07-19, 00:49:04,VALID,1005.62,VALID,0,VALID,94.3235,VALID,0.100563,VALID,24.5193,VALID,61,VALID,0,
2009-07-19, 00:50:04,VALID,1005.59,VALID,0,VALID,94.3387,VALID,0,VALID,24.5388,VALID,61,VALID,0.286719,
2009-07-19, 00:51:04,VALID,1005.59,VALID,0,VALID,94.3158,VALID,0,VALID,24.5193,VALID,61,VALID,0.287109,
2009-07-19, 00:52:04,VALID,1005.61,VALID,0,VALID,94.3235,VALID,0,VALID,24.5212,VALID,61,VALID,0.195313,
2009-07-19, 00:53:04,VALID,1005.59,VALID,0,VALID,94.3235,VALID,0,VALID,24.5406,VALID,61,VALID,0.294922,
2009-07-19, 00:54:04,VALID,1005.61,VALID,0,VALID,94.3387,VALID,0,VALID,24.4998,VALID,61,VALID,0.227344,
2009-07-19, 00:55:04,VALID,1005.56,VALID,0,VALID,94.3235,VALID,0,VALID,24.5017,VALID,61,VALID,0.203516,
2009-07-19, 00:56:04,VALID,1005.57,VALID,0,VALID,94.3311,VALID,0,VALID,24.4804,VALID,61,VALID,0.234375,
2009-07-19, 00:57:04,VALID,1005.54,VALID,0,VALID,94.3387,VALID,0,VALID,24.5017,VALID,61,VALID,0.172656,
2009-07-19, 00:58:04,VALID,1005.52,VALID,0,VALID,94.3464,VALID,0,VALID,24.4804,VALID,61,VALID,0.142969,
2009-07-19, 00:59:04,VALID,1005.49,VALID,0,VALID,94.354,VALID,0,VALID,24.5017,VALID,61,VALID,0.223828,
2009-07-19, 01:00:04,VALID,1005.46,VALID,0,VALID,94.3692,VALID,0.100563,VALID,24.4804,VALID,61,VALID,0,
2009-07-19, 01:01:04,VALID,1005.43,VALID,0,VALID,94.3769,VALID,0,VALID,24.4804,VALID,61,VALID,0,
2009-07-19, 01:02:04,VALID,1005.4,VALID,0,VALID,94.3769,VALID,0.100563,VALID,24.4414,VALID,61,VALID,0,
2009-07-19, 01:03:04,VALID,1005.4,VALID,0,VALID,94.3769,VALID,0,VALID,24.4201,VALID,61,VALID,0,
2009-07-19, 01:04:04,VALID,1005.36,VALID,0,VALID,94.3921,VALID,0,VALID,24.4006,VALID,61,VALID,0,
2009-07-19, 01:05:04,VALID,1005.34,VALID,0,VALID,94.3845,VALID,0,VALID,24.422,VALID,61,VALID,0,
2009-07-19, 01:06:04,VALID,1005.35,VALID,0,VALID,94.3845,VALID,0,VALID,24.4025,VALID,61,VALID,0,
2009-07-19, 01:07:04,VALID,1005.3,VALID,0,VALID,94.354,VALID,0,VALID,24.383,VALID,61,VALID,0,
2009-07-19, 01:08:04,VALID,1005.31,VALID,0,VALID,94.3616,VALID,0.100563,VALID,24.4025,VALID,61,VALID,0,
2009-07-19, 01:09:04,VALID,1005.32,VALID,0,VALID,94.3692,VALID,0.100563,VALID,24.4043,VALID,61,VALID,0,
2009-07-19, 01:10:04,VALID,1005.27,VALID,0,VALID,94.354,VALID,0,VALID,24.3849,VALID,61,VALID,0,
2009-07-19, 01:11:04,VALID,1005.27,VALID,0,VALID,94.354,VALID,0,VALID,24.4043,VALID,61,VALID,0,
2009-07-19, 01:12:04,VALID,1005.25,VALID,0,VALID,94.354,VALID,0.100563,VALID,24.383,VALID,61,VALID,0,
2009-07-19, 01:13:04,VALID,1005.27,VALID,0,VALID,94.3692,VALID,0,VALID,24.4043,VALID,61,VALID,0,
2009-07-19, 01:14:04,VALID,1005.24,VALID,0,VALID,94.3769,VALID,0.100563,VALID,24.383,VALID,61,VALID,0,
2009-07-19, 01:15:04,VALID,1005.24,VALID,0,VALID,94.3692,VALID,0.100563,VALID,24.3636,VALID,61,VALID,0,
2009-07-19, 01:16:04,VALID,1005.23,VALID,0,VALID,94.3769,VALID,0,VALID,24.3636,VALID,61,VALID,0,
2009-07-19, 01:17:04,VALID,1005.2,VALID,0,VALID,94.354,VALID,0,VALID,24.3441,VALID,61,VALID,0,
2009-07-19, 01:18:04,VALID,1005.22,VALID,0,VALID,94.3464,VALID,0.100563,VALID,24.3654,VALID,61,VALID,0,
2009-07-19, 01:19:04,VALID,1005.21,VALID,0,VALID,94.3464,VALID,0,VALID,24.3441,VALID,61,VALID,0,
2009-07-19, 01:20:04,VALID,1005.21,VALID,0,VALID,94.3387,VALID,0,VALID,24.3441,VALID,61,VALID,0,
2009-07-19, 01:21:04,VALID,1005.22,VALID,0,VALID,94.3692,VALID,0.100563,VALID,24.3033,VALID,61,VALID,0,
2009-07-19, 01:22:04,VALID,1005.23,VALID,0,VALID,94.3464,VALID,0,VALID,24.3246,VALID,61,VALID,0,
2009-07-19, 01:23:04,VALID,1005.21,VALID,0,VALID,94.3616,VALID,0,VALID,24.3246,VALID,61,VALID,0,
2009-07-19, 01:24:04,VALID,1005.2,VALID,0,VALID,94.3311,VALID,0,VALID,24.3052,VALID,61,VALID,0,
2009-07-19, 01:25:04,VALID,1005.2,VALID,0,VALID,94.3158,VALID,0,VALID,24.3246,VALID,61,VALID,0,
2009-07-19, 01:26:04,VALID,1005.22,VALID,0,VALID,94.3235,VALID,0.100563,VALID,24.3052,VALID,61,VALID,0,
2009-07-19, 01:27:04,VALID,1005.21,VALID,0,VALID,94.293,VALID,0,VALID,24.2857,VALID,61,VALID,0,
2009-07-19, 01:28:04,VALID,1005.22,VALID,0,VALID,94.3158,VALID,0,VALID,24.2857,VALID,61,VALID,0,
2009-07-19, 01:29:04,VALID,1005.23,VALID,0,VALID,94.3006,VALID,0,VALID,24.3052,VALID,61,VALID,0,
2009-07-19, 01:30:04,VALID,1005.21,VALID,0,VALID,94.3082,VALID,0,VALID,24.307,VALID,61,VALID,0,
2009-07-19, 01:31:04,VALID,1005.22,VALID,0,VALID,94.3158,VALID,0,VALID,24.3052,VALID,61,VALID,0,
2009-07-19, 01:32:04,VALID,1005.23,VALID,0,VALID,94.3311,VALID,0,VALID,24.3246,VALID,61,VALID,0,
2009-07-19, 01:33:04,VALID,1005.21,VALID,0,VALID,94.3387,VALID,0,VALID,24.3459,VALID,61,VALID,0,
2009-07-19, 01:34:04,VALID,1005.2,VALID,0,VALID,94.3464,VALID,0,VALID,24.3246,VALID,61,VALID,0,
2009-07-19, 01:35:04,VALID,1005.21,VALID,0,VALID,94.3311,VALID,0,VALID,24.3459,VALID,61,VALID,0,
2009-07-19, 01:36:04,VALID,1005.2,VALID,0,VALID,94.3311,VALID,0,VALID,24.3441,VALID,61,VALID,0,
2009-07-19, 01:37:04,VALID,1005.19,VALID,0,VALID,94.3311,VALID,0,VALID,24.3441,VALID,61,VALID,0,
2009-07-19, 01:38:04,VALID,1005.17,VALID,0,VALID,94.3235,VALID,0,VALID,24.3246,VALID,61,VALID,0,
2009-07-19, 01:39:04,VALID,1005.13,VALID,0,VALID,94.3158,VALID,0,VALID,24.3441,VALID,61,VALID,0,
2009-07-19, 01:40:04,VALID,1005.12,VALID,0,VALID,94.3311,VALID,0,VALID,24.3441,VALID,61,VALID,0,
2009-07-19, 01:41:04,VALID,1005.11,VALID,0,VALID,94.3158,VALID,0,VALID,24.3441,VALID,61,VALID,0,
2009-07-19, 01:42:04,VALID,1005.06,VALID,0,VALID,94.3082,VALID,0,VALID,24.3636,VALID,61,VALID,0,
2009-07-19, 01:43:04,VALID,1005.06,VALID,0,VALID,94.3006,VALID,0,VALID,24.3636,VALID,61,VALID,0,
2009-07-19, 01:44:04,VALID,1005.05,VALID,0,VALID,94.293,VALID,0,VALID,24.3636,VALID,61,VALID,0.365625,
2009-07-19, 01:45:04,VALID,1005.06,VALID,0,VALID,94.2853,VALID,0.100563,VALID,24.3636,VALID,61,VALID,0.3125,
2009-07-19, 01:46:04,VALID,1005.06,VALID,0,VALID,94.2548,VALID,0.100563,VALID,24.3441,VALID,61,VALID,0.310937,
2009-07-19, 01:47:04,VALID,1005.09,VALID,0,VALID,94.2243,VALID,0.100563,VALID,24.3441,VALID,61,VALID,0.217187,
2009-07-19, 01:48:04,VALID,1005.09,VALID,0,VALID,94.1862,VALID,0,VALID,24.3441,VALID,61,VALID,0.046875,
2009-07-19, 01:49:04,VALID,1005.09,VALID,0,VALID,94.1709,VALID,0.100563,VALID,24.3654,VALID,61,VALID,0.141016,
2009-07-19, 01:50:04,VALID,1005.09,VALID,0,VALID,94.1404,VALID,0.100563,VALID,24.3441,VALID,61,VALID,0,
2009-07-19, 01:51:04,VALID,1005.1,VALID,0,VALID,94.1251,VALID,0,VALID,24.3246,VALID,61,VALID,0,
2009-07-19, 01:52:04,VALID,1005.09,VALID,0,VALID,94.1175,VALID,0.100563,VALID,24.3033,VALID,61,VALID,0.00429688,
2009-07-19, 01:53:04,VALID,1005.11,VALID,0,VALID,94.087,VALID,0.100563,VALID,24.3441,VALID,61,VALID,0.0238281,
2009-07-19, 01:54:04,VALID,1005.1,VALID,0,VALID,94.1099,VALID,0.100563,VALID,24.3246,VALID,61,VALID,0,
2009-07-19, 01:55:04,VALID,1005.08,VALID,0,VALID,94.087,VALID,0.100563,VALID,24.3246,VALID,61,VALID,0,
2009-07-19, 01:56:04,VALID,1005.07,VALID,0,VALID,94.0565,VALID,0.100563,VALID,24.3052,VALID,61,VALID,0.228906,
2009-07-19, 01:57:04,VALID,1005.1,VALID,0,VALID,94.0336,VALID,0.100563,VALID,24.3052,VALID,61,VALID,0.361328,
2009-07-19, 01:58:04,VALID,1005.08,VALID,0,VALID,93.9649,VALID,0,VALID,24.307,VALID,61,VALID,0.308203,
2009-07-19, 01:59:04,VALID,1005.08,VALID,0,VALID,93.8963,VALID,0,VALID,24.2857,VALID,61,VALID,0.386328,
2009-07-19, 02:00:04,VALID,1005.1,VALID,0,VALID,93.8352,VALID,0.100563,VALID,24.2857,VALID,61,VALID,0.448438,
2009-07-19, 02:01:04,VALID,1005.07,VALID,0,VALID,93.7742,VALID,0.100563,VALID,24.2857,VALID,61,VALID,0.334375,
2009-07-19, 02:02:04,VALID,1005.05,VALID,0,VALID,93.7284,VALID,0,VALID,24.2857,VALID,61,VALID,0.260547,
2009-07-19, 02:03:04,VALID,1005.04,VALID,0,VALID,93.6521,VALID,0,VALID,24.2662,VALID,61,VALID,0.266406,
2009-07-19, 02:04:04,VALID,1005.03,VALID,0,VALID,93.6445,VALID,0,VALID,24.2875,VALID,61,VALID,0.289063,
2009-07-19, 02:05:04,VALID,1005.03,VALID,0,VALID,93.6064,VALID,0,VALID,24.2662,VALID,61,VALID,0.373047,
2009-07-19, 02:06:04,VALID,1005.02,VALID,0,VALID,93.553,VALID,0.100563,VALID,24.2468,VALID,61,VALID,0.187891,
2009-07-19, 02:07:04,VALID,1004.99,VALID,0,VALID,93.5148,VALID,0,VALID,24.2681,VALID,61,VALID,0.299609,
2009-07-19, 02:08:04,VALID,1004.96,VALID,0,VALID,93.4767,VALID,0.100563,VALID,24.2468,VALID,61,VALID,0.189063,
2009-07-19, 02:09:04,VALID,1004.97,VALID,0,VALID,93.4309,VALID,0,VALID,24.2468,VALID,61,VALID,0.224609,
2009-07-19, 02:10:04,VALID,1004.97,VALID,0,VALID,93.3928,VALID,0.100563,VALID,24.2255,VALID,61,VALID,0.257813,
2009-07-19, 02:11:04,VALID,1004.96,VALID,0,VALID,93.3622,VALID,0.100563,VALID,24.2273,VALID,61,VALID,0.355078,
2009-07-19, 02:12:04,VALID,1004.95,VALID,0,VALID,93.3012,VALID,0.100563,VALID,24.2291,VALID,61,VALID,0.327344,
2009-07-19, 02:13:04,VALID,1004.94,VALID,0,VALID,93.3012,VALID,0,VALID,24.2273,VALID,61,VALID,0.484766,
2009-07-19, 02:14:04,VALID,1004.95,VALID,0,VALID,93.2478,VALID,0,VALID,24.2273,VALID,61,VALID,0.536719,
2009-07-19, 02:15:04,VALID,1004.91,VALID,0,VALID,93.2249,VALID,0.100563,VALID,24.2078,VALID,61,VALID,0.383594,
2009-07-19, 02:16:04,VALID,1004.91,VALID,0,VALID,93.1944,VALID,0.100563,VALID,24.1884,VALID,61,VALID,0.379297,
2009-07-19, 02:17:04,VALID,1004.88,VALID,0,VALID,93.2173,VALID,0.100563,VALID,24.1865,VALID,61,VALID,0.262109,
2009-07-19, 02:18:04,VALID,1004.85,VALID,0,VALID,93.2402,VALID,0.100563,VALID,24.1689,VALID,61,VALID,0.132813,
2009-07-19, 02:19:04,VALID,1004.84,VALID,0,VALID,93.2554,VALID,0,VALID,24.1671,VALID,61,VALID,0.264844,
2009-07-19, 02:20:04,VALID,1004.82,VALID,0,VALID,93.2631,VALID,0,VALID,24.1689,VALID,61,VALID,0.125,
2009-07-19, 02:21:04,VALID,1004.8,VALID,0,VALID,93.3317,VALID,0.100563,VALID,24.1884,VALID,61,VALID,0.278125,
2009-07-19, 02:22:04,VALID,1004.8,VALID,0,VALID,93.347,VALID,0,VALID,24.1494,VALID,61,VALID,0.31875,
2009-07-19, 02:23:04,VALID,1004.78,VALID,0,VALID,93.4233,VALID,0,VALID,24.1689,VALID,61,VALID,0.130469,
2009-07-19, 02:24:04,VALID,1004.75,VALID,0,VALID,93.3775,VALID,0.100563,VALID,24.13,VALID,61,VALID,0.118359,
2009-07-19, 02:25:04,VALID,1004.73,VALID,0,VALID,93.3699,VALID,0.100563,VALID,24.1105,VALID,61,VALID,0.123047,
2009-07-19, 02:26:04,VALID,1004.72,VALID,0,VALID,93.4233,VALID,0.100563,VALID,24.0892,VALID,61,VALID,0.0628906,
2009-07-19, 02:27:04,VALID,1004.72,VALID,0,VALID,93.4233,VALID,0,VALID,24.091,VALID,61,VALID,0.00351562,
2009-07-19, 02:28:04,VALID,1004.7,VALID,0,VALID,93.4233,VALID,0.100563,VALID,24.091,VALID,61,VALID,0.0382813,
2009-07-19, 02:29:04,VALID,1004.71,VALID,0,VALID,93.4767,VALID,0.100563,VALID,24.0716,VALID,61,VALID,0,
2009-07-19, 02:30:04,VALID,1004.71,VALID,0,VALID,93.5224,VALID,0.100563,VALID,24.091,VALID,61,VALID,0.00195313,
2009-07-19, 02:31:04,VALID,1004.69,VALID,0,VALID,93.5987,VALID,0.100563,VALID,24.0716,VALID,61,VALID,0.136328,
2009-07-19, 02:32:04,VALID,1004.74,VALID,0,VALID,93.5987,VALID,0.100563,VALID,24.0697,VALID,61,VALID,0.211719,
2009-07-19, 02:33:04,VALID,1004.72,VALID,0,VALID,93.6445,VALID,0.100563,VALID,24.1105,VALID,61,VALID,0.236719,
2009-07-19, 02:34:04,VALID,1004.7,VALID,0,VALID,93.6521,VALID,0.100563,VALID,24.0697,VALID,61,VALID,0.2,
2009-07-19, 02:35:04,VALID,1004.73,VALID,0,VALID,93.6979,VALID,0.100563,VALID,24.091,VALID,61,VALID,0.210156,
2009-07-19, 02:36:04,VALID,1004.74,VALID,0,VALID,93.6826,VALID,0.100563,VALID,24.091,VALID,46,VALID,0.369531,
2009-07-19, 02:37:04,VALID,1004.73,VALID,0,VALID,93.6979,VALID,0,VALID,24.0697,VALID,45,VALID,0.262109,
2009-07-19, 02:38:04,VALID,1004.72,VALID,0,VALID,93.6674,VALID,0.100563,VALID,24.0503,VALID,45,VALID,0.45,
2009-07-19, 02:39:04,VALID,1004.72,VALID,0,VALID,93.7361,VALID,0.100563,VALID,24.091,VALID,12,VALID,0.558203,
2009-07-19, 02:40:04,VALID,1004.7,VALID,0,VALID,93.8352,VALID,0.100563,VALID,24.1105,VALID,320,VALID,0.494922,
2009-07-19, 02:41:04,VALID,1004.69,VALID,0,VALID,93.8886,VALID,0.100563,VALID,24.1105,VALID,349,VALID,0.648828,
2009-07-19, 02:42:04,VALID,1004.68,VALID,0,VALID,93.9039,VALID,0.100563,VALID,24.1494,VALID,350,VALID,0.755078,
2009-07-19, 02:43:04,VALID,1004.68,VALID,0,VALID,93.9039,VALID,0,VALID,24.1707,VALID,351,VALID,0.641016,
2009-07-19, 02:44:04,VALID,1004.65,VALID,0,VALID,93.9039,VALID,0,VALID,24.1902,VALID,350,VALID,0.699609,
2009-07-19, 02:45:04,VALID,1004.68,VALID,0,VALID,93.8581,VALID,0,VALID,24.1902,VALID,350,VALID,0.483594,
2009-07-19, 02:46:04,VALID,1004.66,VALID,0,VALID,93.8352,VALID,0,VALID,24.1902,VALID,350,VALID,0.297656,
2009-07-19, 02:47:04,VALID,1004.68,VALID,0,VALID,93.8047,VALID,0,VALID,24.1494,VALID,350,VALID,0.315234,
2009-07-19, 02:48:04,VALID,1004.66,VALID,0,VALID,93.7971,VALID,0,VALID,24.1707,VALID,350,VALID,0.155859,
2009-07-19, 02:49:04,VALID,1004.67,VALID,0,VALID,93.7895,VALID,0,VALID,24.1707,VALID,350,VALID,0.164063,
2009-07-19, 02:50:04,VALID,1004.66,VALID,0,VALID,93.7742,VALID,0,VALID,24.1513,VALID,350,VALID,0,
2009-07-19, 02:51:04,VALID,1004.65,VALID,0,VALID,93.7666,VALID,0,VALID,24.1513,VALID,350,VALID,0.233594,
2009-07-19, 02:52:04,VALID,1004.66,VALID,0,VALID,93.7895,VALID,0,VALID,24.1318,VALID,350,VALID,0.233594,
2009-07-19, 02:53:04,VALID,1004.64,VALID,0,VALID,93.8123,VALID,0,VALID,24.1318,VALID,350,VALID,0.345313,
2009-07-19, 02:54:04,VALID,1004.64,VALID,0,VALID,93.8352,VALID,0,VALID,24.1123,VALID,350,VALID,0.3,
2009-07-19, 02:55:04,VALID,1004.63,VALID,0,VALID,93.8352,VALID,0,VALID,24.0929,VALID,350,VALID,0.284375,
2009-07-19, 02:56:04,VALID,1004.63,VALID,0,VALID,93.8734,VALID,0,VALID,24.0734,VALID,350,VALID,0.316016,
2009-07-19, 02:57:04,VALID,1004.65,VALID,0,VALID,93.8963,VALID,0,VALID,24.0734,VALID,350,VALID,0.288281,
2009-07-19, 02:58:04,VALID,1004.65,VALID,0,VALID,93.9344,VALID,0,VALID,24.0521,VALID,350,VALID,0.346875,
2009-07-19, 02:59:04,VALID,1004.63,VALID,0,VALID,93.9573,VALID,0,VALID,24.0521,VALID,350,VALID,0.36875,
2009-07-19, 03:00:04,VALID,1004.63,VALID,0,VALID,93.9954,VALID,0,VALID,24.0521,VALID,350,VALID,0.354688,
2009-07-19, 03:01:04,VALID,1004.62,VALID,0,VALID,93.9878,VALID,0,VALID,24.0326,VALID,350,VALID,0.188672,
2009-07-19, 03:02:04,VALID,1004.61,VALID,0,VALID,94.0336,VALID,0.100563,VALID,24.0326,VALID,350,VALID,0.112109,
2009-07-19, 03:03:04,VALID,1004.56,VALID,0,VALID,94.0412,VALID,0,VALID,24.0326,VALID,350,VALID,0.232031,
2009-07-19, 03:04:04,VALID,1004.56,VALID,0,VALID,94.0488,VALID,0,VALID,24.0326,VALID,350,VALID,0.160156,
2009-07-19, 03:05:04,VALID,1004.56,VALID,0,VALID,94.087,VALID,0,VALID,24.0326,VALID,350,VALID,0.25625,
2009-07-19, 03:06:04,VALID,1004.56,VALID,0,VALID,94.0946,VALID,0,VALID,24.0521,VALID,350,VALID,0.3,
2009-07-19, 03:07:04,VALID,1004.58,VALID,0,VALID,94.1404,VALID,0.100563,VALID,24.0114,VALID,350,VALID,0.270312,
2009-07-19, 03:08:04,VALID,1004.56,VALID,0,VALID,94.148,VALID,0,VALID,24.0521,VALID,350,VALID,0.441406,
2009-07-19, 03:09:04,VALID,1004.55,VALID,0,VALID,94.1404,VALID,0,VALID,24.0521,VALID,350,VALID,0.466016,
2009-07-19, 03:10:04,VALID,1004.55,VALID,0,VALID,94.148,VALID,0,VALID,24.0521,VALID,350,VALID,0.376563,
2009-07-19, 03:11:04,VALID,1004.58,VALID,0,VALID,94.1556,VALID,0,VALID,24.0326,VALID,350,VALID,0.338672,
2009-07-19, 03:12:04,VALID,1004.55,VALID,0,VALID,94.1556,VALID,0.100563,VALID,24.0114,VALID,350,VALID,0.266406,
2009-07-19, 03:13:04,VALID,1004.56,VALID,0,VALID,94.1251,VALID,0.100563,VALID,24.0132,VALID,350,VALID,0.354688,
2009-07-19, 03:14:04,VALID,1004.53,VALID,0,VALID,94.1175,VALID,0.100563,VALID,23.9742,VALID,350,VALID,0.333203,
2009-07-19, 03:15:04,VALID,1004.5,VALID,0,VALID,94.1251,VALID,0.100563,VALID,23.9548,VALID,350,VALID,0.402344,
2009-07-19, 03:16:04,VALID,1004.53,VALID,0,VALID,94.1633,VALID,0.100563,VALID,23.9548,VALID,350,VALID,0.448438,
2009-07-19, 03:17:04,VALID,1004.5,VALID,0,VALID,94.148,VALID,0.100563,VALID,23.9548,VALID,350,VALID,0.485938,
2009-07-19, 03:18:04,VALID,1004.52,VALID,0,VALID,94.1556,VALID,0.100563,VALID,23.9353,VALID,350,VALID,0.507813,
2009-07-19, 03:19:04,VALID,1004.49,VALID,0,VALID,94.1785,VALID,0,VALID,23.9159,VALID,350,VALID,0.375391,
2009-07-19, 03:20:04,VALID,1004.46,VALID,0,VALID,94.1709,VALID,0,VALID,23.8964,VALID,349,VALID,0.514063,
2009-07-19, 03:21:04,VALID,1004.48,VALID,0,VALID,94.1862,VALID,0,VALID,23.8964,VALID,348,VALID,0.485156,
2009-07-19, 03:22:04,VALID,1004.44,VALID,0,VALID,94.209,VALID,0,VALID,23.8769,VALID,348,VALID,0.476953,
2009-07-19, 03:23:04,VALID,1004.44,VALID,0,VALID,94.2396,VALID,0,VALID,23.8964,VALID,343,VALID,0.571484,
2009-07-19, 03:24:04,VALID,1004.42,VALID,0,VALID,94.2701,VALID,0,VALID,23.9177,VALID,348,VALID,0.597656,
2009-07-19, 03:25:04,VALID,1004.4,VALID,0,VALID,94.2853,VALID,0,VALID,23.9159,VALID,348,VALID,0.608203,
2009-07-19, 03:26:04,VALID,1004.37,VALID,0,VALID,94.2853,VALID,0,VALID,23.9159,VALID,348,VALID,0.574219,
2009-07-19, 03:27:04,VALID,1004.38,VALID,0,VALID,94.293,VALID,0,VALID,23.8964,VALID,349,VALID,0.605469,
2009-07-19, 03:28:04,VALID,1004.35,VALID,0,VALID,94.2624,VALID,0,VALID,23.8575,VALID,349,VALID,0.600391,
2009-07-19, 03:29:04,VALID,1004.32,VALID,0,VALID,94.2396,VALID,0,VALID,23.8575,VALID,349,VALID,0.565234,
2009-07-19, 03:30:04,VALID,1004.31,VALID,0,VALID,94.2472,VALID,0,VALID,23.8575,VALID,351,VALID,0.588281,
2009-07-19, 03:31:04,VALID,1004.3,VALID,0,VALID,94.2548,VALID,0,VALID,23.8575,VALID,352,VALID,0.716797,
2009-07-19, 03:32:04,VALID,1004.34,VALID,0,VALID,94.3006,VALID,0,VALID,23.8575,VALID,352,VALID,0.504687,
2009-07-19, 03:33:04,VALID,1004.32,VALID,0,VALID,94.2853,VALID,0,VALID,23.838,VALID,352,VALID,0.530859,
2009-07-19, 03:34:04,VALID,1004.31,VALID,0,VALID,94.2777,VALID,0.100563,VALID,23.838,VALID,353,VALID,0.414063,
2009-07-19, 03:35:04,VALID,1004.3,VALID,0,VALID,94.2853,VALID,0,VALID,23.8185,VALID,353,VALID,0.481641,
2009-07-19, 03:36:04,VALID,1004.31,VALID,0,VALID,94.293,VALID,0,VALID,23.8398,VALID,353,VALID,0.425781,
2009-07-19, 03:37:04,VALID,1004.31,VALID,0,VALID,94.2777,VALID,0,VALID,23.7991,VALID,353,VALID,0.421094,
2009-07-19, 03:38:04,VALID,1004.3,VALID,0,VALID,94.2701,VALID,0,VALID,23.7796,VALID,353,VALID,0.413281,
2009-07-19, 03:39:04,VALID,1004.28,VALID,0,VALID,94.2853,VALID,0,VALID,23.7796,VALID,353,VALID,0.420703,
2009-07-19, 03:40:04,VALID,1004.27,VALID,0,VALID,94.2624,VALID,0,VALID,23.7601,VALID,353,VALID,0.353125,
2009-07-19, 03:41:04,VALID,1004.27,VALID,0,VALID,94.2624,VALID,0,VALID,23.7407,VALID,353,VALID,0.357422,
2009-07-19, 03:42:04,VALID,1004.27,VALID,0,VALID,94.293,VALID,0,VALID,23.7425,VALID,353,VALID,0.387891,
2009-07-19, 03:43:04,VALID,1004.29,VALID,0,VALID,94.3235,VALID,0,VALID,23.7212,VALID,353,VALID,0.265234,
2009-07-19, 03:44:04,VALID,1004.31,VALID,0,VALID,94.3235,VALID,0.100563,VALID,23.7017,VALID,353,VALID,0.349609,
2009-07-19, 03:45:04,VALID,1004.32,VALID,0,VALID,94.3464,VALID,0.100563,VALID,23.6823,VALID,353,VALID,0.307422,
2009-07-19, 03:46:04,VALID,1004.35,VALID,0,VALID,94.3921,VALID,0,VALID,23.6823,VALID,353,VALID,0.368359,